Location: Rumah Long Bangan
(2.8362°N, 113.7519°E)
Time: 05:43:59
(UTC+00:00)

Meteor 1-22 Rocket - Pass Details

Date: 24 October 2021
Orbit: 787 x 941 km, 81.2° (Epoch: 28 November)

Event Time Altitude Azimuth Distance (km) Brightness Sun altitude
Exits shadow 20:27:22 70° 263° (W) 870 4.0 -25.5°
Drops below altitude 10° 20:32:40 10° 182° (S) 2,378 6.6 -24.2°
Sets 20:35:01 0° 180° (S) 3,297 7.4 -23.6°
